ELECTRON KICK STAGE R/B, 58901

Orbit data source: Space-Track

ELECTRON KICK STAGE R/B, 58901 is space debris in SSO originally from a launch on Wed, 31 Jan 2024 UTC launched from the Rocket Lab Launch Complex (RLLC). Debris objects in space refer to the collection of defunct objects orbiting the Earth. Examples of debris include non-operational satellites, rocket bodies, and fragments generated from explosions, collisions, or faulty payload assembly.

Loading next visibility...
Identifier
58901, 2024-022C
Orbit
SSO
Last TLE update
1 day ago
Origin
Manufacturer
Rocket Lab
Mission
Spacecraft
Bus & Motor
KICK STAGE, CURIE
Mass
~43 kg wet, ~43 kg dry
Launch date (UTC)
2024-01-31 (1 year ago)
Launch vehicle
Unknown
Launch site
Rocket Lab Launch Complex (RLLC)
Object type
Payload
Rocket body
Debris
Shape & HBR
Trunc Cone, 1.4 m
Radar Cross Section
0.760 m², Medium (>0.1 m² and < 1m²)

Expand to show TLE details & history

TLE from 1 day ago
0 ELECTRON KICK STAGE R/B
1 58901U 24022C   25185.55234867  .00013900  00000-0  42998-3 0  9992
2 58901  97.4470  30.6050 0008371 263.8318  96.1971 15.33574039 79122
Epoch: 2025-07-04T13:15Z
TLE epoch observation values (Epoch: 2025-07-04T13:15:22.925Z)
Latitude
0.00003°
Longitude
-91.04363°
Altitude
468.89 km
Speed
7.631 km/s
True Right ascension
02h 02m 25s
True Declination
0° 00' 00"
Sunlit
Object was in daylight at epoch
Visualization orbit readout
Latitude
68.34026°
Longitude
-108.95352°
Altitude
482.545 km
Speed
7.627 km/s
Apparent Right ascension
19h 41m 39s
Apparent Declination
25° 30' 09"
Sunlit
Object is in daylight
Visualization observer readout
Local Sidereal Time
05:40:10
Azimuth
331.195° NNW
Elevation
-18.723°
Doppler factor
1
Orbital elements
Apogee altitude
467.835 km
Perigee altitude
456.383 km
Semi-major axis
6,840.246 km
Eccentricity
0.00084
Inclination
97.447°
RAAN
30.605°
Arg. of periapsis
263.8318°
True anomaly
Unknown
Mean anomaly
96.1971°
Eccentric anomaly
Unknown
Mean motion
3.8365 °/min
Orbital period
93.84 mins
BSTAR
0.00042998
Loading maneuver chart data...
Loading SW <> Apogee altitude chart data...
Loading historical data...
Loading historical data...
Loading historical data...
Loading historical data...
Loading historical data...
Loading historical data...
Loading historical data...

ELECTRON KICK STAGE R/B Visibility forecast

Observer location: undefined°, undefined°

Span
Click to sort rows by Start time (UTC) header in descending order
Start Az.
Max El. time (UTC)
Max El. Az.
Max El.
End time (UTC)
End Az.
5 mins2025-07-06 01:50:45.360Z46.163° ENE2025-07-06 01:52:45.360Z83.326° E19.889°2025-07-06 01:55:45.360Z145.877° SSE
5 mins2025-07-06 13:56:45.360Z187.722° SSW2025-07-06 13:58:45.360Z288.181° WNW39.998°2025-07-06 14:01:45.360Z340.251° N
|